Temperature
4 4 4 4 5 6 6 6 5 6 7 7 7 7 7 8 7 7 8 8 8 9 9 10 10 10 10 11 11 11 11 11 11 11 11 11 12 11 11 11 12 12 12 12
3 3 4 5 5 5 5 5 5 6 7 7 6 6 7 7 7 7 7 8 8 8 9 9 10 10 10 10 10 10 10 11 11 11 11 11 11 11 11 11 11 11 11 11
3 4 5 5 5 5 5 5 5 6 6 6 6 6 6 7 7 7 7 8 8 8 8 9 9 10 10 10 10 10 10 10 10 10 10 10 10 11 11 11 11 11 11 11
3 4 4 4 5 5 5 5 5 5 5 5 6 5 6 6 6 6 6 7 7 8 8 8 9 9 9 10 10 10 10 10 10 10 10 10 10 10 11 11 10 10 10 10
3 3 3 4 4 5 4 5 5 5 4 4 5 4 5 5 6 6 6 6 7 7 7 8 8 8 9 9 9 9 10 10 10 10 10 10 10 10 10 10 10 10 10 10
2 3 3 3 4 4 4 4 4 3 3 4 4 4 4 4 5 6 5 6 6 6 7 7 8 8 8 8 9 9 9 9 9 9 9 9 9 10 10 10 10 10 9 9
2 3 3 3 4 4 4 3 3 3 3 4 4 4 4 4 4 5 5 5 6 6 6 7 7 7 8 8 8 8 8 9 9 9 9 9 9 9 9 9 9 9 9 9
1 2 3 3 3 3 3 3 3 4 3 3 3 3 4 4 4 5 5 5 5 5 6 6 6 7 7 7 7 8 8 8 8 8 8 8 8 9 9 9 9 9 9 9
1 2 3 3 3 3 3 2 3 2 2 2 3 3 3 4 3 4 4 4 5 5 5 6 6 6 6 7 7 7 7 8 8 8 8 8 8 8 8 8 9 8 8 8
1 1 2 2 3 3 3 2 2 2 3 3 3 3 3 3 3 3 3 3 4 5 5 5 6 6 6 6 6 7 7 7 7 7 7 7 8 8 8 8 8 8 8 8
0 0 1 1 2 2 2 2 2 1 2 2 3 4 3 3 3 3 3 3 4 4 4 5 5 6 6 6 6 6 6 7 7 7 7 7 7 7 7 7 8 8 7 7
-0 -1 -0 0 1 2 2 2 1 2 1 1 2 3 3 2 2 2 2 3 3 4 4 4 5 5 5 5 5 5 6 6 6 6 6 6 6 7 7 7 7 7 7 7
-0 -1 -0 1 1 1 1 1 1 0 0 0 1 3 2 1 2 2 2 3 3 3 3 4 4 4 4 4 5 5 5 5 6 6 6 6 6 6 6 6 6 6 7 7
0 -2 -1 0 1 0 0 1 1 0 0 0 1 2 2 1 1 1 2 2 2 3 3 3 3 3 4 4 4 4 5 5 5 5 5 5 5 5 6 6 6 6 6 6
-1 -2 -2 -1 -0 -0 0 0 0 -0 0 0 1 1 1 1 0 0 1 1 2 2 2 2 2 3 3 3 4 4 4 4 4 4 4 5 5 5 5 5 5 5 5 5
-3 -2 -2 -1 -0 -0 -0 0 0 0 0 0 1 1 1 0 0 0 0 0 1 1 1 2 2 2 2 3 3 3 3 3 4 4 4 4 4 4 4 4 5 5 5 5
-4 -3 -2 -1 -1 -1 -1 -1 -1 -0 -1 -1 0 0 -0 -0 -0 -1 -0 -0 0 0 1 1 1 2 2 2 2 3 3 3 3 3 3 3 4 4 4 4 4 4 4 4
-4 -4 -4 -3 -2 -1 -1 -1 -1 -1 -1 -1 -1 -1 -1 -1 -1 -1 -0 -0 -0 0 0 1 1 1 1 2 2 2 2 3 3 3 3 3 3 3 3 3 3 4 4 4
-4 -4 -4 -3 -3 -2 -1 -1 -2 -2 -1 -2 -2 -2 -2 -1 -1 -1 -0 -0 -0 -0 0 0 1 1 1 1 2 2 2 2 2 2 3 3 3 3 3 3 3 3 3 3
-4 -5 -4 -4 -2 -2 -1 -2 -2 -2 -2 -2 -2 -2 -2 -2 -2 -1 -1 -1 -0 -0 -0 0 0 0 1 1 1 1 1 2 2 2 2 2 2 2 2 2 3 3 3 3
-4 -5 -5 -4 -4 -3 -3 -3 -2 -2 -2 -2 -2 -2 -3 -3 -2 -2 -1 -1 -1 -1 -0 -0 0 0 0 0 1 1 1 1 1 1 2 2 2 2 2 2 2 2 2 3
-5 -5 -5 -5 -4 -3 -3 -3 -3 -3 -2 -2 -2 -2 -3 -3 -2 -2 -2 -2 -1 -1 -1 -1 -0 -0 -0 -0 0 0 0 0 1 1 1 1 1 1 1 1 2 2 2 2
-6 -5 -5 -5 -3 -3 -3 -3 -3 -3 -3 -3 -3 -3 -3 -3 -3 -2 -2 -2 -2 -2 -1 -1 -1 -1 -1 -1 -0 -0 -0 -0 0 0 1 1 1 1 1 1 1 1 1 1
-6 -7 -6 -6 -5 -4 -3 -3 -3 -3 -3 -3 -3 -3 -3 -3 -3 -3 -3 -2 -2 -2 -2 -2 -1 -1 -1 -1 -1 -1 -1 -1 -0 -0 0 0 0 0 0 0 0 0 1 1
-6 -7 -7 -6 -6 -5 -3 -3 -3 -3 -3 -3 -3 -3 -3 -3 -3 -3 -3 -3 -3 -2 -2 -2 -2 -2 -2 -2 -2 -2 -1 -1 -1 -1 -0 -0 -0 -0 -0 -0 -0 -0 0 -0
-7 -7 -6 -5 -5 -5 -4 -3 -3 -4 -4 -3 -4 -4 -4 -4 -4 -4 -3 -3 -3 -3 -3 -3 -2 -2 -2 -2 -2 -2 -2 -2 -1 -1 -1 -1 -1 -1 -1 -1 -0 -1 -1 -1
Wind_Speed
2 2 3 6 6 5 3 4 5 5 4 3 7 7 6 4 4 4 4 4 5 5 3 1 2 4 4 4 4 4 5 5 5 4 4 3 3 3 2 3 4 6 6 7
2 3 6 4 4 4 4 4 4 3 2 3 5 7 6 4 4 5 5 5 5 3 1 1 1 3 4 4 4 4 5 5 5 4 3 2 2 2 2 2 3 5 6 6
2 3 3 3 4 4 5 6 5 4 3 2 1 5 5 3 2 2 2 3 4 4 4 2 1 2 4 4 5 5 5 5 5 4 4 3 3 2 2 2 2 3 5 6
3 3 2 3 5 4 6 5 5 4 2 3 2 3 5 4 3 4 4 3 4 3 2 3 2 2 4 4 4 4 4 5 5 5 6 6 4 3 3 3 2 2 4 5
3 2 1 4 5 4 4 2 3 4 3 3 1 3 5 2 4 6 5 4 3 2 2 3 3 3 3 3 3 4 4 4 4 5 6 6 4 2 2 2 3 2 2 4
4 3 1 2 3 4 1 1 1 1 1 4 5 4 5 4 7 6 5 3 3 2 1 1 1 0 1 1 2 3 4 3 4 4 5 5 5 5 5 4 4 3 2 2
5 3 2 0 1 1 2 2 1 1 2 5 2 4 7 5 4 5 5 4 3 2 1 1 1 0 1 1 1 2 3 3 3 4 4 4 5 6 7 5 5 4 3 2
3 4 2 1 1 2 2 3 3 3 3 2 1 5 5 4 3 2 2 2 1 0 1 1 1 1 2 1 2 2 3 2 3 3 3 3 4 4 3 4 4 4 4 3
1 4 3 2 1 2 2 2 2 1 0 1 4 5 6 2 2 2 0 1 2 2 1 1 1 1 1 2 2 3 3 2 2 3 3 3 4 3 4 4 3 3 3 3
1 4 4 4 1 1 2 3 3 2 2 2 3 4 4 3 2 2 1 2 2 1 1 1 1 1 1 1 1 1 2 2 1 2 3 3 3 3 3 3 4 4 3 3
1 1 4 3 1 2 1 1 1 1 2 2 2 4 3 3 3 3 3 3 2 2 2 2 1 1 0 1 1 1 1 1 0 1 2 2 2 3 3 3 3 3 3 4
1 1 3 4 3 0 1 2 3 2 2 2 2 4 4 2 2 2 3 2 2 2 1 1 0 1 1 1 1 1 1 0 1 1 1 2 2 3 3 3 3 3 3 3
0 1 3 4 2 2 1 1 1 2 2 2 3 5 4 5 5 4 3 3 2 1 2 1 1 1 1 1 0 0 0 0 0 0 1 1 2 3 3 3 3 3 3 3
1 1 3 5 4 2 3 3 2 3 3 4 6 7 8 8 7 7 6 4 3 2 2 1 1 1 1 1 0 1 1 1 1 1 1 1 1 2 2 2 3 3 3 3
2 1 2 5 7 3 4 6 4 5 5 6 6 6 9 6 5 5 5 5 4 3 3 2 1 2 2 2 2 2 2 2 1 1 1 1 1 1 2 2 2 2 3 3
2 1 2 4 3 2 4 7 6 6 6 7 7 8 6 4 3 3 4 4 4 4 3 3 3 3 2 2 2 2 2 2 1 0 0 0 1 1 2 2 2 2 2 2
0 1 1 3 3 3 4 5 5 4 3 4 6 6 4 4 4 3 4 4 4 5 3 3 3 3 3 3 2 2 2 1 1 0 0 1 1 1 1 2 3 3 2 2
3 1 1 2 3 3 5 2 2 4 4 4 4 4 3 4 5 3 3 3 4 4 4 3 3 4 4 3 3 2 2 1 1 1 1 1 1 1 1 2 2 2 2 2
3 3 1 0 1 5 5 2 1 2 4 2 4 5 4 4 3 3 3 3 3 3 3 3 2 3 3 3 3 2 2 1 1 1 1 0 0 1 1 2 2 1 1 1
2 2 2 1 1 4 5 3 2 1 4 2 2 3 4 3 2 4 5 5 5 3 2 2 2 2 2 3 2 2 2 1 1 1 1 1 0 1 1 1 1 1 1 2
1 1 1 2 4 6 5 4 1 2 5 4 2 3 2 2 4 5 5 5 4 3 3 3 3 2 2 3 2 2 2 3 2 2 1 1 0 0 1 1 1 1 1 2
3 3 3 2 3 6 3 1 2 4 4 4 4 3 3 4 5 4 4 4 4 4 4 3 3 3 3 3 2 2 3 3 3 2 1 1 1 1 1 1 1 1 2 2
5 5 4 6 6 4 2 3 3 3 4 4 4 4 3 4 4 4 4 4 3 3 3 3 2 3 3 3 2 2 3 3 2 2 2 1 1 1 1 1 1 1 1 1
4 2 3 5 7 6 5 4 4 4 4 4 4 4 3 3 4 4 4 4 3 3 3 3 2 3 3 3 3 2 3 3 2 2 2 1 1 1 1 1 1 1 1 1
5 3 3 5 6 6 5 4 5 5 4 4 4 3 3 3 4 3 3 3 3 2 2 2 2 2 3 3 3 3 3 2 2 1 1 1 1 1 1 1 0 1 1 2
4 5 5 6 5 4 6 5 4 4 4 4 4 4 3 3 4 3 3 2 2 2 2 2 2 2 3 3 3 3 3 2 1 1 1 1 1 1 1 1 2 3 1 1
Wind_Direction
32 61 239 236 225 223 229 230 248 251 250 218 230 244 260 255 213 213 213 210 216 239 259 173 143 145 132 136 146 151 150 153 144 141 148 149 158 158 153 149 150 153 153 150
50 260 258 240 250 232 232 242 251 279 251 229 239 251 248 241 225 217 212 217 217 245 271 168 89 145 151 157 160 160 164 161 159 160 161 154 143 141 145 144 146 159 156 156
210 258 285 234 231 247 244 223 232 265 304 274 244 272 250 251 239 255 237 223 219 222 215 200 187 176 159 168 175 177 178 169 161 149 126 106 92 88 118 152 168 167 161 162
272 282 291 259 241 232 249 230 239 250 257 259 187 254 264 242 247 252 257 240 238 237 206 196 205 202 184 186 179 177 175 167 162 153 155 157 166 179 193 179 173 155 158 160
277 309 271 253 254 241 234 250 247 239 218 262 224 204 281 241 238 245 246 235 242 237 205 200 209 216 193 178 167 174 164 162 165 169 171 170 170 171 152 149 154 153 146 156
269 288 264 256 273 241 217 28 22 31 168 246 223 188 269 233 229 240 239 238 243 235 219 209 201 171 134 121 136 153 155 163 169 173 175 175 172 164 159 164 169 168 160 157
324 305 301 275 331 300 87 98 8 286 231 245 205 196 248 258 242 225 225 227 234 227 194 157 83 113 124 123 152 162 164 171 175 175 180 184 181 175 180 181 180 178 178 188
351 306 292 316 216 212 203 162 175 209 224 270 207 227 251 270 268 254 226 205 179 220 180 168 216 201 176 181 193 182 182 190 182 183 189 182 175 177 184 183 179 187 192 193
324 287 312 292 269 164 164 189 174 135 303 269 255 282 307 336 356 2 84 141 196 216 210 200 212 204 179 193 205 204 190 194 196 192 186 180 178 181 183 173 168 174 168 167
222 282 303 316 4 8 151 150 120 159 197 239 271 270 270 281 275 295 266 231 245 237 237 262 232 216 196 204 204 186 183 189 202 190 190 192 192 187 176 164 169 174 170 161
220 246 312 344 233 224 92 126 131 159 176 177 253 271 265 246 255 255 263 258 246 239 232 238 252 234 184 110 141 171 169 111 106 195 193 180 184 173 160 166 176 177 169 163
301 129 282 273 273 282 162 174 153 178 244 206 215 274 334 308 304 297 293 290 278 261 257 244 215 80 69 88 113 159 172 162 208 198 189 183 169 158 158 167 171 168 170 173
340 93 339 342 355 16 347 264 174 148 150 192 210 268 342 8 6 3 351 333 333 360 17 39 66 72 51 56 59 352 250 267 309 128 141 156 161 162 170 173 167 166 167 167
59 143 191 221 251 268 279 280 224 171 200 224 233 265 305 337 341 344 345 341 348 8 27 33 33 17 356 354 2 353 354 360 8 79 135 172 185 180 175 163 161 166 165 165
71 200 240 260 265 260 270 272 244 214 216 217 245 254 284 309 311 322 336 348 0 4 6 3 354 344 348 358 4 4 356 355 7 78 158 197 181 162 148 148 155 153 156 162
39 225 294 288 277 258 274 277 257 244 242 243 263 278 290 303 322 335 342 348 350 338 337 340 347 346 337 340 340 344 335 336 7 48 219 101 106 131 147 153 150 145 144 138
353 117 339 288 319 346 283 258 228 225 227 221 245 263 310 316 317 311 321 332 325 323 323 325 324 316 320 318 317 318 313 326 359 28 50 90 128 148 164 157 146 153 154 142
177 163 206 296 14 255 251 250 210 227 254 240 263 292 302 291 300 300 306 309 312 319 323 327 329 333 334 332 338 338 340 357 27 44 39 60 102 157 150 146 146 146 144 154
180 165 175 178 271 280 298 303 183 218 284 271 260 291 310 314 325 318 335 324 307 307 317 320 326 330 333 340 343 350 1 10 34 14 345 345 131 166 159 155 153 139 142 155
89 125 149 145 209 253 274 298 292 143 289 311 270 284 305 341 325 296 335 337 337 345 346 344 352 360 355 348 357 12 4 5 351 328 309 306 251 195 191 172 150 126 150 162
62 49 189 208 234 266 284 300 78 164 269 307 269 272 274 255 251 288 322 330 339 348 352 2 7 359 349 352 14 17 4 340 328 338 351 354 351 223 167 132 116 127 122 123
193 188 205 179 214 260 306 81 175 244 294 304 291 283 270 266 284 305 317 324 341 349 357 5 7 353 353 3 19 13 351 335 344 3 13 5 14 44 83 112 93 111 123 131
211 203 203 202 222 255 246 228 265 287 287 292 290 290 277 279 291 307 316 324 332 342 347 354 5 356 359 4 12 356 335 340 356 15 19 16 27 46 80 120 128 111 122 138
266 222 215 258 266 271 270 279 295 291 280 287 284 285 278 277 288 298 304 312 327 341 343 351 7 2 353 356 358 346 338 346 6 18 9 19 41 47 54 86 134 153 172 181
243 200 228 260 283 304 286 282 289 300 305 313 320 312 292 289 291 284 290 300 311 327 336 348 356 341 333 346 356 353 350 360 13 12 7 25 44 69 64 47 19 235 232 224
206 196 202 240 248 240 273 290 295 296 300 301 309 316 312 291 285 286 286 293 302 314 327 338 343 334 329 341 347 347 350 360 22 12 7 26 52 66 73 61 20 10 356 315
Height
1467 1471 1470 1470 1469 1469 1470 1471 1471 1469 1466 1467 1466 1465 1464 1462 1463 1463 1463 1465 1466 1467 1467 1468 1470 1472 1474 1476 1478 1480 1482 1484 1486 1488 1491 1493 1496 1498 1500 1503 1505 1507 1509 1510
1471 1472 1469 1468 1468 1468 1469 1471 1471 1468 1465 1466 1466 1464 1462 1461 1461 1461 1461 1462 1463 1464 1465 1466 1467 1470 1471 1474 1476 1478 1480 1482 1484 1487 1489 1491 1494 1496 1498 1500 1503 1505 1506 1508
1472 1471 1468 1468 1468 1468 1468 1470 1470 1469 1467 1465 1466 1464 1461 1459 1459 1460 1460 1461 1461 1462 1463 1464 1466 1467 1469 1471 1473 1475 1478 1480 1482 1484 1487 1489 1491 1493 1496 1498 1500 1502 1504 1506
1472 1469 1469 1468 1468 1467 1468 1466 1467 1468 1471 1471 1468 1471 1462 1459 1459 1458 1458 1458 1459 1460 1461 1462 1463 1465 1467 1469 1471 1473 1476 1477 1480 1482 1484 1486 1488 1490 1493 1495 1497 1499 1501 1503
1472 1469 1469 1469 1467 1467 1467 1465 1467 1468 1471 1473 1470 1473 1465 1460 1459 1457 1456 1457 1457 1458 1459 1460 1462 1463 1465 1467 1469 1471 1473 1475 1477 1479 1481 1483 1486 1488 1491 1493 1495 1496 1498 1500
1471 1470 1470 1469 1467 1467 1466 1467 1468 1471 1472 1474 1469 1473 1468 1462 1456 1454 1455 1455 1456 1456 1458 1459 1461 1462 1463 1465 1466 1469 1470 1472 1474 1476 1478 1480 1483 1485 1488 1490 1491 1493 1495 1498
1473 1470 1469 1468 1468 1467 1468 1472 1475 1474 1477 1473 1467 1469 1464 1456 1454 1453 1453 1454 1454 1455 1456 1456 1458 1459 1460 1462 1464 1466 1468 1470 1471 1473 1475 1477 1480 1482 1485 1487 1488 1491 1493 1494
1480 1476 1470 1469 1469 1470 1470 1473 1476 1476 1475 1472 1469 1467 1459 1453 1451 1451 1451 1452 1453 1454 1455 1455 1457 1458 1459 1460 1462 1464 1465 1467 1469 1470 1473 1475 1477 1480 1482 1484 1486 1488 1490 1492
1483 1478 1470 1469 1468 1469 1471 1474 1474 1478 1480 1478 1471 1465 1456 1451 1451 1450 1450 1451 1451 1452 1454 1454 1456 1457 1458 1459 1460 1462 1463 1465 1466 1468 1470 1472 1475 1477 1479 1482 1484 1486 1487 1489
1483 1482 1474 1470 1469 1469 1470 1472 1477 1478 1475 1473 1469 1465 1461 1454 1451 1451 1450 1450 1450 1451 1452 1453 1454 1455 1456 1458 1459 1461 1462 1463 1464 1466 1468 1470 1472 1474 1477 1479 1481 1483 1484 1486
1483 1484 1479 1474 1472 1472 1473 1474 1475 1477 1477 1477 1474 1465 1455 1454 1451 1451 1450 1449 1450 1450 1451 1452 1453 1454 1455 1456 1457 1459 1460 1461 1462 1464 1466 1468 1470 1471 1473 1475 1478 1480 1482 1484
1483 1486 1484 1478 1473 1472 1472 1473 1475 1477 1479 1479 1476 1468 1455 1453 1451 1450 1450 1449 1449 1450 1450 1451 1452 1453 1454 1454 1455 1456 1457 1459 1460 1462 1463 1465 1467 1469 1470 1473 1475 1477 1479 1481
1483 1487 1486 1479 1478 1476 1475 1473 1474 1477 1480 1481 1478 1467 1456 1454 1452 1451 1450 1449 1449 1449 1449 1450 1451 1451 1452 1452 1453 1454 1455 1456 1458 1459 1461 1462 1464 1466 1467 1470 1472 1474 1476 1478
1482 1486 1487 1484 1478 1477 1476 1474 1474 1476 1479 1478 1473 1464 1458 1456 1455 1453 1451 1450 1449 1449 1449 1449 1449 1450 1451 1451 1452 1453 1454 1455 1456 1457 1458 1460 1461 1463 1465 1467 1469 1472 1474 1475
1482 1486 1485 1482 1478 1476 1475 1473 1472 1473 1473 1473 1466 1464 1459 1458 1458 1455 1453 1451 1449 1449 1449 1449 1449 1449 1450 1450 1450 1451 1452 1453 1454 1455 1456 1458 1460 1461 1463 1465 1467 1469 1471 1473
1485 1486 1484 1480 1474 1474 1473 1470 1470 1470 1469 1468 1464 1462 1459 1458 1457 1455 1454 1452 1450 1450 1449 1449 1449 1449 1449 1449 1449 1450 1450 1451 1452 1453 1455 1456 1458 1459 1461 1462 1464 1466 1468 1470
1488 1488 1486 1481 1477 1474 1475 1470 1468 1468 1467 1467 1464 1462 1459 1458 1457 1456 1454 1453 1451 1450 1449 1449 1448 1448 1448 1449 1449 1449 1449 1450 1450 1452 1453 1454 1456 1457 1459 1460 1462 1464 1465 1467
1488 1489 1489 1486 1482 1481 1472 1467 1466 1466 1465 1464 1462 1461 1460 1459 1457 1455 1454 1453 1451 1450 1449 1448 1448 1448 1448 1448 1448 1448 1449 1449 1449 1451 1451 1453 1454 1455 1456 1458 1460 1461 1463 1465
1484 1487 1489 1488 1486 1479 1470 1466 1467 1468 1465 1463 1462 1460 1459 1457 1455 1454 1453 1452 1451 1450 1449 1448 1448 1448 1448 1447 1447 1447 1448 1448 1448 1449 1450 1451 1452 1453 1454 1456 1457 1459 1461 1462
1485 1486 1489 1490 1485 1479 1471 1467 1465 1468 1466 1462 1461 1460 1459 1457 1457 1455 1452 1451 1450 1449 1448 1448 1447 1447 1447 1447 1446 1446 1446 1447 1447 1448 1449 1450 1451 1452 1453 1454 1455 1457 1458 1460
1488 1490 1491 1490 1488 1477 1469 1466 1465 1471 1467 1462 1460 1459 1458 1457 1457 1454 1452 1451 1450 1448 1447 1447 1446 1446 1446 1446 1445 1445 1445 1445 1446 1447 1448 1449 1450 1450 1451 1452 1453 1455 1456 1457
1488 1489 1491 1491 1488 1479 1468 1466 1468 1466 1462 1460 1458 1457 1456 1455 1453 1452 1451 1449 1448 1447 1447 1446 1445 1445 1445 1444 1444 1444 1444 1444 1445 1446 1447 1447 1448 1449 1450 1451 1452 1453 1453 1455
1486 1484 1482 1482 1476 1468 1466 1465 1464 1463 1461 1459 1457 1456 1454 1452 1451 1450 1449 1448 1447 1446 1446 1445 1444 1444 1444 1444 1443 1443 1443 1444 1444 1444 1445 1446 1447 1447 1448 1449 1450 1450 1451 1452
1481 1478 1479 1476 1468 1465 1464 1462 1461 1460 1459 1457 1455 1454 1452 1451 1450 1449 1448 1447 1446 1445 1445 1444 1443 1442 1442 1443 1443 1443 1443 1443 1443 1443 1444 1444 1445 1446 1447 1447 1448 1449 1449 1450
1477 1477 1476 1473 1466 1463 1460 1460 1459 1457 1456 1454 1453 1452 1451 1449 1448 1447 1446 1445 1445 1444 1443 1443 1442 1442 1442 1442 1442 1442 1442 1442 1442 1442 1442 1443 1444 1444 1445 1446 1447 1447 1448 1448
1471 1472 1472 1467 1463 1463 1460 1458 1457 1456 1454 1453 1452 1450 1449 1448 1447 1446 1445 1444 1444 1443 1442 1442 1442 1441 1441 1441 1441 1441 1441 1441 1441 1441 1441 1442 1442 1443 1443 1444 1444 1445 1446 1446